Date,TemperatureHighF,TemperatureAvgF,TemperatureLowF,DewpointHighF,DewpointAvgF,DewpointLowF,HumidityHigh,HumidityAvg,HumidityLow,PressureMaxIn,PressureMinIn,WindSpeedMaxMPH,WindSpeedAvgMPH,GustSpeedMaxMPH,PrecipitationSumIn
2013-1-1,50,45,41,39,17,-19,92,38,6,30.08,29.90,21,6,21,0.04
2013-1-2,42,39,32,41,14,-3,100,40,18,30.19,29.95,16,4,16,0.10
2013-1-3,45,36,29,15,2,-21,41,25,6,30.23,30.14,17,3,17,0.00
2013-1-4,42,35,27,7,3,-4,38,26,14,30.29,30.19,28,12,28,0.00
2013-1-5,54,40,29,15,0,-18,40,21,5,30.39,30.20,18,5,18,0.00
2013-1-6,48,43,35,23,15,6,58,33,18,30.22,30.06,20,6,20,0.00
2013-1-7,52,39,28,18,8,-14,58,30,6,30.46,30.17,22,5,23,0.00
2013-1-8,62,38,22,29,18,-1,100,54,8,30.45,30.35,8,0,8,0.00
2013-1-9,61,46,28,40,30,21,100,60,27,30.44,30.35,22,3,22,0.00
2013-1-10,62,50,40,23,10,-11,45,23,5,30.58,30.44,13,1,13,0.00
2013-1-11,49,43,40,42,33,12,100,76,24,30.44,30.13,13,2,13,0.07
2013-1-12,78,57,40,60,44,29,100,73,18,30.18,30.10,12,2,12,0.00
2013-1-13,73,62,55,61,52,38,100,74,29,30.12,30.01,13,4,13,0.00
2013-1-14,66,56,48,61,52,41,100,89,45,30.26,30.04,14,2,14,0.71
2013-1-15,48,43,38,48,43,38,100,100,100,30.29,30.11,12,3,12,2.10
2013-1-16,48,42,38,48,41,38,100,97,72,30.11,29.94,14,2,14,0.49
2013-1-17,47,39,30,46,34,16,100,84,36,30.13,30.00,18,3,18,0.68
2013-1-18,43,34,27,24,9,-6,86,41,14,30.50,30.34,17,3,17,1.21
2013-1-19,60,36,21,29,15,-14,100,54,6,30.44,30.08,10,1,10,0.24
2013-1-20,53,45,36,16,5,-15,42,21,6,30.09,29.99,23,9,25,0.00
2013-1-21,51,41,28,9,-11,-29,33,12,5,30.09,29.86,30,9,30,0.00
2013-1-22,30,23,17,-13,-27,-36,16,10,5,30.25,29.97,28,12,28,0.00
2013-1-23,32,26,16,3,-15,-36,31,17,5,30.31,30.00,23,7,23,0.00
2013-1-24,34,26,16,5,-14,-33,36,19,6,30.50,29.96,37,11,37,0.00
2013-1-25,24,20,16,19,4,-13,88,54,23,30.48,30.04,13,3,13,0.00
2013-1-26,40,33,25,9,7,-3,41,33,26,31.00,24.19,16,6,64,0.04
2013-1-27,38,29,17,18,11,-9,87,49,26,30.56,24.19,9,1,12,0.00
2013-1-28,58,41,28,43,30,-25,100,70,23,31.75,24.18,9,2,80,0.13
2013-1-29,77,61,26,48,30,-35,73,37,2,31.75,24.19,11,2,15,0.00
2013-1-30,66,60,50,64,55,2,100,84,50,30.99,24.18,48,7,48,3.59
2013-1-31,62,38,27,46,7,-32,85,28,5,31.12,24.19,36,12,39,0.10
2013-2-1,41,25,17,34,-6,-24,100,28,11,30.35,29.78,23,9,38,0.00
2013-2-2,40,26,14,29,5,-18,99,46,8,30.34,29.98,9,1,12,0.00
2013-2-3,72,35,27,67,10,-3,85,39,22,30.16,29.83,24,8,38,0.19
2013-2-4,70,32,23,20,1,-36,58,29,5,30.23,24.68,20,2,34,0.00
2013-2-5,50,42,27,26,17,9,59,37,19,29.95,29.86,14,3,23,0.00
2013-2-6,58,45,33,30,7,-15,73,26,6,30.30,29.95,16,3,26,0.00
2013-2-7,41,37,29,34,20,12,100,52,39,30.38,30.10,9,1,15,0.01
2013-2-8,50,37,28,35,24,9,100,67,21,30.10,29.83,17,5,29,0.33
2013-2-9,48,36,26,10,-8,-25,41,18,4,30.35,30.05,18,7,29,0.00
2013-2-10,48,36,20,31,4,-16,71,33,7,30.46,30.20,12,2,21,0.06
2013-2-11,63,48,37,47,29,-15,100,63,6,30.20,29.88,14,3,26,0.03
2013-2-12,60,48,42,6,-7,-21,20,11,4,30.05,29.92,19,6,28,0.00
2013-2-13,48,43,39,44,28,-6,100,64,10,29.94,29.62,14,2,23,0.17
2013-2-14,60,43,31,23,7,-18,57,28,5,30.05,29.83,13,2,22,0.00
2013-2-15,62,43,28,35,15,-16,80,42,5,30.08,29.90,14,3,22,0.01
2013-2-16,39,34,25,20,3,-13,45,27,14,30.00,29.84,14,5,22,0.00
2013-2-17,31,24,18,18,-16,-31,72,18,7,30.21,29.89,19,9,31,0.00
2013-2-18,54,37,18,8,-10,-23,42,16,4,30.34,30.14,10,2,14,0.00
2013-2-19,52,44,39,35,8,-22,76,29,5,30.14,29.79,19,6,31,0.02
2013-2-20,44,34,27,-6,-16,-26,18,11,5,30.16,29.95,22,10,32,0.00
2013-2-21,50,38,22,4,-11,-24,32,14,4,30.27,30.11,11,3,17,0.00
2013-2-22,41,35,28,26,15,-6,69,46,14,30.33,30.13,10,2,16,0.02
2013-2-23,52,41,31,43,31,22,100,70,34,30.14,29.81,7,0,9,0.01
2013-2-24,53,45,40,42,8,-35,100,33,5,30.08,29.81,16,6,25,0.00
2013-2-25,47,36,27,16,6,-5,55,30,12,30.21,30.08,9,1,12,0.00
2013-2-26,41,35,27,41,26,5,100,76,34,30.17,29.62,10,1,19,1.27
2013-2-27,50,44,39,42,24,9,100,52,20,29.76,29.58,14,5,22,0.00
2013-2-28,42,39,36,28,13,5,64,35,22,29.83,29.69,16,6,23,0.00
2013-3-1,41,38,35,17,10,2,42,31,23,29.91,29.79,13,5,21,0.00
2013-3-2,37,32,27,9,3,-2,36,29,22,29.91,29.85,14,7,22,0.00
2013-3-3,36,29,24,6,-2,-12,36,26,19,29.97,29.87,17,9,25,0.00
2013-3-4,50,36,24,0,-16,-30,27,13,3,30.09,29.96,15,6,24,0.00
2013-3-5,50,40,30,39,16,-7,100,47,12,30.07,29.63,10,1,14,0.70
2013-3-6,42,36,28,34,20,-43,100,58,33,30.08,29.60,23,7,38,0.08
2013-3-7,44,39,37,17,12,5,42,33,21,30.25,30.06,19,9,31,0.00
2013-3-8,49,42,34,12,4,-13,34,23,7,30.34,30.20,17,8,28,0.00
2013-3-9,68,47,27,21,5,-16,61,24,4,30.37,30.24,10,1,14,0.00
2013-3-10,70,50,28,29,7,-11,86,28,4,30.32,30.18,11,1,17,0.00
2013-3-11,60,51,46,43,15,-9,65,27,8,30.21,29.88,17,4,23,0.01
2013-3-12,56,50,42,54,32,1,100,59,13,30.01,29.73,19,6,30,0.81
2013-3-13,46,39,29,32,9,-6,91,30,11,30.14,29.96,23,7,32,0.00
2013-3-14,47,36,25,3,-8,-22,32,17,5,30.23,30.11,19,8,28,0.00
2013-3-15,65,48,28,11,-2,-12,28,13,6,30.16,29.85,12,4,20,0.00
2013-3-16,76,60,43,49,27,3,100,37,6,29.86,29.60,22,3,39,0.04
2013-3-17,59,45,34,50,40,31,100,88,42,30.20,29.85,12,3,20,0.85
2013-3-18,38,33,30,38,33,30,100,100,100,30.22,29.88,10,2,16,0.27
2013-3-19,59,46,31,42,-1,-39,100,35,2,30.04,29.78,23,8,34,0.00
2013-3-20,52,43,28,13,-19,-35,33,8,2,30.08,29.78,18,4,26,0.00
2013-3-21,40,29,23,16,-5,-24,41,22,9,29.97,29.77,17,8,28,0.00
2013-3-22,50,34,18,2,-10,-25,37,17,4,30.04,29.93,15,3,21,0.00
2013-3-23,59,43,27,13,-5,-22,44,18,4,30.33,29.90,11,1,15,0.00
2013-3-24,47,36,29,36,22,-7,100,70,11,29.95,29.59,12,1,18,0.17
2013-3-25,42,34,28,38,21,2,100,66,20,29.77,29.52,18,5,31,0.64
2013-3-26,45,40,34,15,11,-1,41,31,16,30.11,29.77,17,8,28,0.00
2013-3-27,45,38,30,20,10,0,58,32,17,30.22,30.10,14,6,23,0.00
2013-3-28,49,42,34,15,2,-11,42,20,8,30.28,30.19,18,7,28,0.01
2013-3-29,56,43,28,21,1,-22,67,25,4,30.33,30.17,14,3,20,0.00
2013-3-30,69,49,31,26,6,-13,68,25,4,30.26,30.07,14,1,18,0.00
2013-3-31,62,51,44,50,33,-1,100,59,12,30.08,29.79,7,1,12,0.33
2013-4-1,61,51,42,37,22,6,62,35,13,30.03,29.84,18,5,29,0.00
2013-4-2,51,42,33,16,-7,-29,45,17,3,30.18,30.03,14,4,24,0.00
2013-4-3,53,44,31,-4,-19,-35,20,7,2,30.34,30.18,16,4,21,0.00
2013-4-4,44,37,30,36,7,-22,100,44,6,30.40,30.01,9,1,14,0.28
2013-4-5,64,47,31,42,16,-12,100,50,5,30.05,29.90,14,4,22,0.45
2013-4-6,65,51,36,32,6,-15,80,27,4,30.28,30.05,11,2,16,0.00
2013-4-7,75,59,43,32,14,-9,61,22,5,30.25,30.05,11,4,16,0.00
2013-4-8,82,65,48,41,20,-6,77,27,4,30.15,30.01,12,1,23,0.00
2013-4-9,90,72,57,40,21,-4,50,20,4,30.19,30.05,12,1,18,0.00
2013-4-10,95,77,66,39,20,-10,37,16,2,30.11,29.91,12,2,18,0.00
2013-4-11,88,73,61,50,29,2,64,26,5,29.95,29.76,13,3,23,0.00
2013-4-12,75,67,58,68,39,-6,100,55,4,29.82,29.67,16,6,26,1.45
2013-4-13,74,62,50,14,-2,-22,23,9,2,30.03,29.81,18,6,29,0.00
2013-4-14,80,65,49,20,1,-18,29,10,2,30.12,30.01,11,2,19,0.00
2013-4-15,68,57,50,53,47,10,100,74,10,30.27,30.07,14,4,20,0.33
2013-4-16,79,65,53,62,47,23,100,64,13,30.33,30.19,11,2,16,0.01
2013-4-17,86,70,60,60,46,11,97,50,7,30.25,30.14,8,1,13,0.00
2013-4-18,78,70,63,65,45,16,100,50,10,30.20,30.01,12,5,18,0.00
2013-4-19,72,66,50,68,52,19,100,64,29,30.01,29.68,17,6,28,0.54
2013-4-20,62,51,42,20,-1,-18,32,14,4,30.33,29.89,19,7,32,0.00
2013-4-21,61,49,36,26,8,-11,61,23,6,30.53,30.32,11,3,15,0.00
2013-4-22,65,51,33,37,7,-20,91,26,3,30.51,30.31,13,3,21,0.00
2013-4-23,72,58,48,33,22,0,47,28,7,30.34,30.11,11,3,16,0.00
2013-4-24,77,63,48,50,33,7,99,41,7,30.14,29.92,17,4,25,0.00
2013-4-25,70,55,42,29,-1,-25,43,16,2,30.34,30.08,13,4,21,0.00
2013-4-26,73,57,37,29,6,-15,60,18,3,30.48,30.34,9,1,13,0.00
2013-4-27,72,60,50,46,22,-1,65,28,6,30.39,30.28,9,1,12,0.00
2013-4-28,56,52,50,54,50,39,100,93,55,30.28,30.06,15,2,22,0.45
2013-4-29,74,58,50,59,49,25,100,78,16,30.13,30.00,7,0,10,0.06
2013-4-30,76,62,54,60,50,23,100,72,14,30.26,30.06,10,1,15,0.00
2013-5-1,74,62,52,55,38,2,100,53,7,30.40,30.25,12,3,17,0.00
2013-5-2,74,62,52,39,20,-1,46,22,6,30.40,30.30,10,2,16,0.00
2013-5-3,69,57,47,48,34,13,96,47,13,30.36,30.24,12,2,21,0.00
2013-5-4,66,54,47,40,30,13,67,42,15,30.28,30.15,13,4,22,0.00
2013-5-5,55,51,46,52,30,7,100,48,18,30.18,30.04,13,3,22,0.11
2013-5-6,56,52,50,56,52,46,100,99,82,30.08,29.89,16,4,32,1.78
2013-5-7,104,54,50,100,52,40,100,96,47,29.97,29.90,13,1,18,0.63
2013-5-8,66,53,50,56,50,40,100,92,42,30.03,29.95,7,0,8,0.41
2013-5-9,78,65,48,58,33,4,100,48,6,30.09,30.00,13,2,17,0.00
2013-5-10,88,68,51,65,39,7,100,54,6,30.10,29.95,20,2,32,0.21
2013-5-11,77,66,61,66,57,29,100,79,18,29.99,29.81,20,1,33,0.37
2013-5-12,63,56,49,60,15,-11,93,29,5,30.09,29.85,16,6,25,0.00
2013-5-13,62,50,41,36,10,-17,75,27,5,30.21,30.08,17,3,28,0.00
2013-5-14,74,58,36,40,16,-15,99,33,3,30.26,30.04,10,2,15,0.00
2013-5-15,92,76,50,46,21,-2,80,21,3,30.05,29.88,14,4,23,0.00
2013-5-16,82,75,68,43,23,5,39,17,6,30.04,29.93,16,5,25,0.00
2013-5-17,90,72,64,68,41,8,100,38,6,30.17,30.03,8,1,13,0.28
2013-5-18,71,67,63,68,61,50,100,85,47,30.22,30.14,10,2,16,0.23
2013-5-19,71,66,63,69,65,63,100,99,87,30.19,30.09,11,2,16,2.12
2013-5-20,79,70,65,71,62,31,100,79,18,30.16,30.05,10,0,14,0.06
2013-5-21,95,76,65,69,49,12,100,56,5,30.09,29.95,9,1,13,0.00
2013-5-22,89,73,64,69,49,29,100,51,12,30.03,29.93,12,2,18,0.29
2013-5-23,78,70,64,68,56,39,100,67,26,29.98,29.82,17,1,30,0.07
2013-5-24,65,57,50,62,24,-6,93,36,7,30.22,29.87,19,7,28,0.00
2013-5-25,69,57,44,23,-2,-24,42,12,2,30.29,30.19,17,5,26,0.00
2013-5-26,75,63,49,30,6,-20,48,16,2,30.29,30.19,12,2,17,0.00
2013-5-27,78,64,50,36,20,-1,56,22,5,30.33,30.18,9,1,14,0.00
2013-5-28,86,73,56,55,33,6,84,29,6,30.26,30.14,10,2,18,0.00
2013-5-29,95,78,63,62,33,0,94,31,3,30.25,30.16,9,1,16,0.00
2013-5-30,93,77,62,57,34,10,81,29,6,30.30,30.19,9,1,15,0.00
2013-5-31,92,77,63,57,36,13,75,30,6,30.25,30.12,11,1,18,0.00
2013-6-1,93,78,64,59,35,13,81,28,6,30.14,30.02,11,2,22,0.00
2013-6-2,79,72,68,71,57,37,100,65,23,30.04,29.95,8,1,12,0.85
2013-6-3,79,72,66,69,50,19,100,56,11,30.03,29.90,11,2,32,0.18
2013-6-4,82,70,55,60,39,1,100,45,5,30.17,30.03,10,1,15,0.00
2013-6-5,77,70,64,67,45,20,100,45,15,30.21,30.09,8,2,13,0.03
2013-6-6,69,64,61,67,63,49,100,96,50,30.09,29.85,8,0,12,3.70
2013-6-7,75,69,64,71,64,50,100,88,43,29.87,29.66,12,0,14,0.44
2013-6-8,90,71,62,65,43,3,100,51,5,30.13,29.85,8,1,13,0.12
2013-6-9,90,75,65,70,48,-16,99,50,2,30.20,30.08,10,2,20,0.38
2013-6-10,81,72,67,78,62,-19,100,79,2,30.12,29.57,13,2,24,0.72
2013-6-11,80,72,65,68,38,8,100,42,7,29.98,29.90,15,5,26,0.23
2013-6-12,92,78,65,60,36,12,81,29,6,30.00,29.89,13,3,21,0.00
2013-6-13,91,75,65,68,38,-26,100,32,2,29.90,29.62,23,5,44,0.27
2013-6-14,77,70,63,33,18,0,29,16,5,30.07,29.81,13,4,22,0.00
2013-6-15,87,71,54,55,24,-14,95,29,2,30.17,30.06,10,2,15,0.00
2013-6-16,85,74,62,51,29,6,61,26,6,30.11,30.00,12,2,19,0.00
2013-6-17,91,76,67,67,44,10,97,45,6,30.07,29.95,9,1,16,0.12
2013-6-18,77,71,66,72,58,30,100,66,18,30.00,29.87,9,1,13,0.50
2013-6-19,82,70,61,68,48,8,100,59,7,30.19,29.96,9,1,14,0.02
2013-6-20,80,72,66,66,48,12,94,53,8,30.31,30.19,9,2,14,0.00
2013-6-21,86,74,63,56,26,4,66,22,5,30.34,30.25,9,2,13,0.00
2013-6-22,91,74,60,51,32,3,67,28,4,30.32,30.16,11,1,16,0.00
2013-6-23,94,78,68,63,34,-16,83,27,2,30.26,30.09,8,1,13,0.00
2013-6-24,94,78,68,66,40,6,90,35,4,30.25,30.12,8,1,16,0.01
2013-6-25,93,78,67,66,40,10,93,37,5,30.16,30.03,9,1,14,0.00
2013-6-26,92,74,65,72,50,-26,100,56,2,30.05,29.94,20,1,32,0.35
2013-6-27,82,74,66,70,45,9,100,49,7,29.96,29.75,14,2,21,0.01
2013-6-28,91,80,70,61,23,-15,72,22,2,29.79,29.58,16,3,31,0.00
2013-6-29,90,76,67,64,29,-3,78,25,3,29.77,29.64,10,2,15,0.09
2013-6-30,92,75,68,69,48,4,100,54,4,29.91,29.75,12,1,18,0.14
2013-7-1,86,75,68,69,45,5,100,49,5,30.02,29.88,10,2,15,0.09
2013-7-2,76,72,69,71,63,43,100,74,34,30.22,30.01,12,2,20,2.13
2013-7-3,78,73,70,73,67,39,100,85,25,30.29,30.18,8,1,14,1.51
2013-7-4,93,76,70,75,56,6,100,66,5,30.32,30.23,10,1,16,2.78
2013-7-5,91,79,70,72,41,9,100,42,5,30.31,30.22,10,2,16,0.00
2013-7-6,92,77,70,70,43,0,94,45,4,30.29,30.17,11,1,16,0.03
2013-7-7,89,75,69,72,54,12,100,62,6,30.22,30.13,12,1,16,0.38
2013-7-8,91,75,68,70,42,-2,100,49,3,30.23,30.14,8,0,10,0.01
2013-7-9,96,80,71,66,36,-8,82,33,2,30.20,30.10,8,1,13,0.00
2013-7-10,94,77,70,73,52,9,100,61,5,30.13,29.98,12,1,22,2.50
2013-7-11,92,75,68,72,48,-20,100,58,2,30.00,29.93,10,1,16,1.32
2013-7-12,78,71,67,68,34,-18,100,42,3,30.11,29.94,8,1,14,0.45
2013-7-13,80,72,67,66,38,-4,93,39,4,30.26,30.10,10,1,15,0.38
2013-7-14,91,78,70,65,23,-17,80,30,2,30.39,30.26,11,4,18,0.02
2013-7-15,97,81,71,59,16,-15,64,16,2,30.40,30.31,7,0,10,0.00
2013-7-16,100,80,69,59,21,-18,68,22,2,30.36,30.26,11,1,21,0.00
2013-7-17,96,81,72,58,23,-13,61,23,2,30.32,30.20,9,1,13,0.00
2013-7-18,99,82,72,69,25,-10,91,28,2,30.23,30.11,7,1,49,0.00
2013-7-19,97,81,72,66,19,-12,79,21,2,30.15,30.01,9,1,15,0.00
2013-7-20,96,80,73,51,15,-14,44,13,2,30.04,29.93,8,1,13,0.00
2013-7-21,95,78,71,56,20,-16,53,18,2,30.04,29.97,8,0,32,0.02
2013-7-22,95,78,72,69,28,-16,87,28,2,30.02,29.85,10,1,16,0.07
2013-7-23,90,78,71,57,13,-18,59,17,2,29.87,29.77,12,2,18,0.01
2013-7-24,89,77,72,40,2,-18,32,8,2,29.96,29.80,10,2,14,0.00
2013-7-25,87,74,67,22,-7,-21,16,4,2,30.11,29.95,8,1,14,0.00
2013-7-26,84,74,64,39,1,-19,36,9,2,30.17,30.07,10,2,13,0.00
2013-7-27,74,71,69,60,35,2,71,30,6,30.10,29.99,8,0,12,0.42
2013-7-28,91,75,67,58,14,-19,71,22,2,30.06,29.96,8,1,12,0.00
2013-7-29,80,71,62,29,-12,-24,28,4,2,30.26,30.06,11,2,16,0.00
2013-7-30,89,71,59,21,-10,-24,22,5,2,30.31,30.15,8,1,12,0.00
2013-7-31,76,70,66,41,9,-22,37,13,2,30.22,30.06,6,0,9,0.06
2013-8-1,89,72,66,50,11,-21,55,20,2,30.06,29.91,11,2,17,0.02
2013-8-2,83,74,64,38,-9,-22,37,6,2,30.09,29.99,12,2,18,0.00
2013-8-3,88,73,65,17,-10,-23,15,4,2,30.07,29.98,9,1,14,0.00
2013-8-4,81,74,68,28,-12,-23,22,4,2,30.13,29.98,12,2,20,0.00
2013-8-5,79,72,62,12,-15,-24,14,3,2,30.17,30.06,9,2,14,0.00
2013-8-6,87,74,68,56,5,-22,57,14,2,30.08,30.02,10,2,14,0.66
2013-8-7,80,73,69,58,35,-18,67,34,2,30.13,30.07,8,1,12,0.07
2013-8-8,85,75,72,73,30,-18,96,32,2,30.11,30.05,8,2,12,0.99
2013-8-9,94,78,70,67,21,-18,89,29,2,30.07,30.00,11,2,18,0.13
2013-8-10,93,79,73,45,5,-18,35,10,2,30.14,30.06,11,1,17,0.00
2013-8-11,93,77,72,56,21,-18,55,20,2,30.17,30.06,12,1,20,0.32
2013-8-12,94,78,69,65,19,-18,83,24,2,30.12,29.97,8,1,12,0.07
2013-8-13,83,74,70,52,16,-20,50,19,2,30.02,29.86,14,1,24,0.30
2013-8-14,77,70,63,6,-18,-27,8,3,2,30.18,29.92,12,3,18,0.00
2013-8-15,79,66,51,22,-13,-27,30,6,2,30.24,30.14,8,1,12,0.00
2013-8-16,80,66,51,36,-3,-26,51,12,2,30.25,30.17,8,1,12,0.01
2013-8-17,74,64,54,61,21,-24,91,37,2,30.29,30.22,9,0,13,0.33
2013-8-18,72,66,62,65,47,10,100,61,9,30.29,30.21,6,0,8,1.14
2013-8-19,78,70,64,62,30,-19,89,37,2,30.26,30.13,8,1,10,0.11
2013-8-20,89,74,65,68,19,-19,100,30,2,30.25,30.16,9,1,13,0.00
2013-8-21,91,75,68,59,14,-18,60,17,2,30.28,30.15,8,0,12,0.15
2013-8-22,91,76,66,59,0,-20,62,11,2,30.20,30.06,10,1,15,0.05
2013-8-23,83,73,66,32,2,-20,24,8,2,30.19,30.00,16,1,23,0.03
2013-8-24,85,71,60,61,4,-24,99,21,2,30.38,30.19,8,0,13,0.01
2013-8-25,82,70,60,36,-5,-24,41,8,2,30.46,30.34,8,1,12,0.00
2013-8-26,93,72,55,40,-3,-24,49,10,2,30.38,30.14,6,0,9,0.00
2013-8-27,84,75,66,27,-7,-24,22,5,2,30.15,30.00,13,2,21,0.00
2013-8-28,85,76,72,43,6,-20,33,10,2,30.06,29.90,8,1,10,0.23
2013-8-29,94,78,72,46,5,-20,40,10,2,30.10,29.90,11,1,15,0.02
2013-8-30,95,77,68,48,12,-22,44,13,2,30.13,29.98,8,1,12,0.01
2013-8-31,93,75,70,55,36,-12,57,32,2,30.00,29.90,14,1,26,0.33
2013-9-1,91,75,67,64,37,-10,87,37,2,29.95,29.84,10,1,14,0.07
2013-9-2,90,77,69,57,26,-14,64,26,2,29.94,29.84,11,2,15,0.00
2013-9-3,89,76,71,58,46,15,54,35,10,30.05,29.86,12,2,19,0.01
2013-9-4,90,73,62,61,54,40,80,56,26,30.17,29.95,7,1,10,0.00
2013-9-5,88,73,62,61,53,42,82,55,22,30.19,30.10,11,3,18,0.00
2013-9-6,82,71,64,60,53,42,83,57,27,30.28,30.17,8,1,12,0.00
2013-9-7,88,71,55,67,60,50,98,72,47,30.20,30.02,9,1,12,0.00
2013-9-8,92,74,64,70,65,60,96,75,44,30.06,29.96,7,1,12,0.00
2013-9-9,83,74,67,72,67,62,98,81,54,30.23,30.06,10,1,14,0.00
2013-9-10,94,76,68,74,69,64,100,81,45,30.28,30.19,8,0,10,0.04
2013-9-11,96,79,69,73,70,63,100,76,41,30.25,30.11,9,1,14,0.01
2013-9-12,93,79,72,71,67,58,94,70,40,30.11,29.87,10,2,15,0.00
2013-9-13,78,72,62,66,56,46,90,61,34,30.00,29.83,14,3,23,0.00
2013-9-14,77,63,50,55,51,47,95,68,38,30.19,30.00,8,0,10,0.00
2013-9-15,80,64,50,62,55,48,100,75,46,30.28,30.14,9,1,14,0.00
2013-9-16,76,68,60,65,60,55,98,78,52,30.29,30.14,11,1,16,0.00
2013-9-17,77,62,50,59,53,32,100,76,43,30.42,30.28,8,0,12,0.00
2013-9-18,76,61,50,60,54,48,98,79,51,30.36,30.22,8,1,12,0.00
2013-9-19,76,69,64,66,62,59,94,80,60,30.24,30.12,6,0,9,0.00
2013-9-20,73,69,65,71,68,65,100,95,87,30.14,30.00,6,0,9,0.91
2013-9-21,71,68,62,71,68,62,100,100,95,30.00,29.75,11,1,16,0.57
2013-9-22,76,64,51,64,56,51,100,79,47,29.99,29.81,11,1,16,0.01
2013-9-23,77,64,52,60,56,51,96,77,51,30.12,29.98,8,1,10,0.00
2013-9-24,79,67,58,63,58,54,96,76,49,30.15,29.98,7,1,10,0.00
2013-9-25,74,66,58,65,62,57,100,87,66,30.01,29.88,8,0,10,0.02
2013-9-26,79,69,63,66,60,52,100,78,44,30.12,29.96,7,0,10,0.00
2013-9-27,69,56,51,61,54,50,100,94,74,30.22,30.12,5,0,7,0.00
2013-9-28,74,67,58,60,58,43,91,72,52,30.33,30.25,9,1,36,0.00
2013-9-29,77,62,50,59,54,50,100,79,47,30.25,30.09,8,0,11,0.00
2013-9-30,80,65,52,62,56,51,100,76,42,30.14,30.03,7,0,9,0.00
2013-10-1,81,68,54,64,59,51,100,77,39,30.18,30.08,10,0,15,0.00
2013-10-2,83,69,55,63,59,54,100,75,41,30.19,30.09,9,1,14,0.00
2013-10-3,84,70,60,66,62,56,100,79,45,30.19,30.11,6,0,9,0.01
2013-10-4,91,72,62,67,64,59,100,78,42,30.19,30.10,10,1,12,0.00
2013-10-5,92,75,64,68,65,61,100,75,42,30.19,30.08,7,0,10,0.00
2013-10-6,89,73,63,69,64,60,97,75,45,30.10,29.95,11,1,20,0.00
2013-10-7,72,68,54,71,61,47,100,80,55,30.12,29.83,12,2,18,2.38
2013-10-8,74,60,50,52,48,44,91,67,43,30.30,30.11,11,2,16,0.00
2013-10-9,70,58,50,52,50,46,99,76,49,30.32,30.22,10,1,15,0.00
2013-10-10,68,58,50,63,55,45,100,91,76,30.22,30.03,12,3,20,0.23
2013-10-11,74,66,60,64,60,58,96,82,60,30.04,29.96,9,2,14,0.00
2013-10-12,70,66,62,66,63,60,100,91,80,30.18,30.03,8,1,12,0.06
2013-10-13,70,66,63,65,63,62,100,92,79,30.31,30.16,7,0,11,0.05
2013-10-14,73,64,60,65,60,55,100,88,56,30.34,30.23,9,0,13,0.25
2013-10-15,76,61,51,60,53,47,100,77,37,30.29,29.60,7,0,9,0.01
2013-10-16,74,64,51,60,56,50,95,77,53,30.14,29.98,5,0,8,0.00
2013-10-17,71,66,62,66,61,51,93,85,68,29.99,29.83,13,1,21,0.05
2013-10-18,72,58,50,52,44,38,83,61,34,30.08,29.95,14,2,21,0.00
2013-10-19,65,56,50,58,51,42,94,82,63,30.03,29.84,9,1,14,0.00
2013-10-20,69,54,45,43,37,31,79,56,31,30.14,29.96,12,2,22,0.00
2013-10-21,71,54,40,50,45,38,96,74,44,30.19,29.99,8,0,10,0.00
2013-10-22,71,58,50,51,47,44,92,69,40,30.00,29.83,14,2,28,0.00
2013-10-23,62,51,45,50,42,30,95,71,39,30.01,29.73,19,4,34,0.09
2013-10-24,53,46,39,35,32,27,79,60,40,30.20,30.00,15,3,21,0.00
2013-10-25,50,43,35,35,30,24,86,63,37,30.37,30.19,17,3,23,0.00
2013-10-26,64,44,27,36,29,22,91,61,23,30.36,30.03,9,1,15,0.00
2013-10-27,70,55,45,42,37,26,77,53,28,30.14,30.03,16,2,24,0.00
2013-10-28,68,54,42,55,46,39,92,76,47,30.29,30.14,7,0,9,0.01
2013-10-29,74,62,51,57,52,48,95,71,42,30.38,30.27,7,1,10,0.00
2013-10-30,74,64,54,62,56,50,90,75,55,30.32,30.17,8,0,12,0.08
2013-10-31,72,66,60,62,58,54,93,78,55,30.20,29.83,11,2,17,0.00
2013-11-1,77,70,61,63,56,42,92,64,30,29.83,29.65,12,3,21,0.13
2013-11-2,69,58,50,47,38,29,73,50,26,29.98,29.73,16,4,28,0.00
2013-11-3,63,51,42,36,34,29,75,53,32,30.42,29.98,13,3,18,0.00
2013-11-4,54,45,34,36,31,26,89,62,37,30.59,30.40,9,1,12,0.00
2013-11-5,54,47,38,44,35,28,94,64,46,30.62,30.47,6,0,7,0.00
2013-11-6,72,58,49,55,48,44,91,73,44,30.48,30.12,10,2,16,0.00
2013-11-7,62,53,48,55,47,32,94,81,43,30.12,29.98,18,3,32,0.01
2013-11-10,67,53,45,30,26,20,50,36,17,30.29,30.07,23,7,28,0.01
2013-11-11,65,49,36,33,28,23,71,46,23,30.35,30.10,10,1,16,0.00
2013-11-12,52,44,30,36,24,13,57,46,30,30.44,30.01,16,5,25,0.00
2013-11-13,47,37,27,24,17,12,73,47,25,30.53,30.42,13,4,21,0.00
2013-11-14,64,44,29,25,19,12,59,40,15,30.43,30.28,10,2,14,0.00
2013-11-15,65,49,34,49,31,21,94,55,21,30.32,30.19,8,0,10,0.55
2013-11-16,60,52,49,54,50,48,97,93,82,30.31,30.23,5,0,8,0.06
2013-11-17,64,57,51,63,56,51,98,96,91,30.25,29.83,11,4,15,0.17
2013-11-18,68,59,48,63,36,23,97,45,21,30.02,29.79,19,8,32,0.10
2013-11-19,51,46,41,29,27,23,60,49,36,30.34,30.01,18,5,30,0.00
2013-11-20,52,43,35,32,28,23,77,56,35,30.50,30.34,9,1,15,0.00
2013-11-21,52,48,44,42,38,31,74,68,59,30.54,30.41,6,0,8,0.00
2013-11-22,70,58,48,58,50,41,87,74,55,30.42,30.09,9,1,14,0.00
2013-11-23,61,48,31,52,30,14,72,52,28,30.24,30.08,19,8,30,0.00
2013-11-24,35,28,22,18,7,0,53,42,28,30.51,30.24,24,8,37,0.00
2013-11-25,44,33,21,19,13,7,59,45,30,30.52,30.33,7,1,12,0.00
2013-11-26,44,39,33,44,36,16,100,90,42,30.35,29.63,8,0,13,1.80
2013-11-27,46,37,24,46,30,10,100,76,54,30.14,29.56,19,9,29,0.07
2013-11-28,46,33,24,24,19,12,75,58,36,30.44,30.13,14,3,23,0.00
2013-11-29,50,36,23,26,23,18,85,62,36,30.65,30.42,9,0,14,0.00
2013-11-30,47,34,24,27,24,18,84,65,44,30.66,30.35,8,0,12,0.00
2013-12-1,58,38,22,32,26,20,92,65,28,30.35,30.02,8,1,13,0.00
2013-12-2,53,44,32,43,35,28,87,70,50,30.02,29.83,5,0,7,0.00
2013-12-3,64,49,38,46,40,34,90,73,45,29.98,29.86,7,0,10,0.00
2013-12-4,66,54,46,55,48,43,93,82,56,30.08,29.97,7,0,12,0.00
2013-12-5,69,60,50,64,56,49,98,89,75,30.11,29.99,7,0,12,0.03
2013-12-6,74,67,50,69,63,48,98,86,66,30.09,29.90,12,2,21,1.16
2013-12-7,51,46,43,49,38,33,96,75,57,30.48,30.08,11,4,16,0.12
2013-12-8,43,35,28,35,31,25,95,85,69,30.48,30.24,10,2,14,0.03
2013-12-9,49,40,30,45,38,29,97,92,80,30.25,30.04,9,1,13,0.24
2013-12-10,43,38,30,41,31,16,99,78,54,30.26,29.96,19,4,28,0.40
2013-12-11,48,36,26,24,19,13,67,51,26,30.41,30.24,15,4,22,0.00
2013-12-12,39,32,25,20,13,5,59,46,26,30.41,30.26,16,5,25,0.00
2013-12-13,48,37,26,27,17,10,64,45,28,30.34,30.22,12,3,18,0.00
2013-12-14,41,39,36,39,36,24,100,88,58,30.29,29.74,8,0,13,0.38
2013-12-15,46,41,34,42,32,25,100,74,53,30.03,29.69,20,7,33,0.00
2013-12-16,49,41,33,35,31,25,82,69,51,30.14,30.00,12,3,17,0.00
2013-12-17,59,43,30,40,33,24,93,69,39,30.09,29.89,24,4,38,0.01
2013-12-18,48,39,31,26,21,17,64,48,31,30.25,29.99,21,6,35,0.00
2013-12-19,67,48,34,30,24,18,58,40,20,30.23,30.14,12,2,19,0.00
2013-12-20,65,50,41,40,33,26,72,53,30,30.18,30.06,6,0,8,0.00
2013-12-21,69,58,46,62,50,38,87,75,61,30.09,29.97,10,2,16,0.00
2013-12-22,68,64,60,64,60,53,98,89,65,30.08,29.94,15,3,25,0.76
2013-12-23,63,52,37,62,46,26,98,82,63,30.24,29.98,15,5,24,0.80
2013-12-24,43,33,24,29,21,9,81,61,44,30.45,30.21,17,5,30,0.00
2013-12-25,42,29,19,18,14,9,77,56,33,30.52,30.32,9,1,16,0.00
2013-12-26,49,36,24,27,21,15,79,55,35,30.38,30.22,16,3,25,0.00
2013-12-27,52,37,24,26,22,17,82,58,26,30.45,30.34,8,0,12,0.00
2013-12-28,57,41,25,40,26,19,90,59,27,30.38,30.16,5,0,8,0.09
2013-12-29,51,46,42,47,42,39,99,87,68,30.16,29.68,14,3,23,0.92
2013-12-30,48,44,36,39,34,27,74,67,56,30.14,29.90,18,4,28,0.00
2013-12-31,47,40,31,32,23,17,74,53,31,30.34,30.10,17,4,30,0.00
2014-1-1,51,39,28,28,25,19,80,59,32,30.38,30.10,14,2,18,0.00
2014-1-2,43,37,28,42,32,19,97,83,60,30.10,29.62,21,1,34,0.14